This is the latest recevied weather packets stored in our database for station/object KC7WRB. If no packets are shown the sender has not sent any weather packets the latest 10 day(s).
| Time | Temp. | Humidity | Pressure | Rain* | Wind** | Luminosity | Snow |
|---|---|---|---|---|---|---|---|
| 1778384801 | 18.89° C | 25% | 1018.6 hPa | 0 mm | - | 0 W/m² | - |
| 1778384499 | 18.89° C | 24% | 1018.5 hPa | 0 mm | - | 0 W/m² | - |
| 1778384195 | 18.89° C | 24% | 1018.4 hPa | 0 mm | - | 0 W/m² | - |
| 1778383893 | 19.44° C | 24% | 1018.3 hPa | 0 mm | - | 0 W/m² | - |
| 1778383589 | 20° C | 22% | 1018.5 hPa | 0 mm | - | 0 W/m² | - |
| 1778383285 | 20.56° C | 21% | 1018.4 hPa | 0 mm | - | 0 W/m² | - |
| 1778382980 | 21.11° C | 19% | 1018 hPa | 0 mm | - | 0 W/m² | - |
| 1778382677 | 22.78° C | 19% | 1018 hPa | 0 mm | - | 1 W/m² | - |
| 1778382371 | 22.78° C | 15% | 1017.9 hPa | 0 mm | - | 1 W/m² | - |
| 1778382069 | 23.33° C | 15% | 1017.9 hPa | 0 mm | - | 3 W/m² | - |
| 1778381766 | 23.33° C | 16% | 1017.8 hPa | 0 mm | - | 5 W/m² | - |
| 1778381463 | 23.33° C | 15% | 1017.8 hPa | 0 mm | - | 8 W/m² | - |
| 1778381160 | 23.33° C | 15% | 1017.9 hPa | 0 mm | - | 11 W/m² | - |
| 1778380856 | 23.89° C | 16% | 1017.7 hPa | 0 mm | - | 13 W/m² | - |
| 1778380553 | 23.89° C | 15% | 1017.7 hPa | 0 mm | - | 18 W/m² | - |
| 1778380250 | 24.44° C | 15% | 1017.8 hPa | 0 mm | - | 22 W/m² | - |
| 1778379950 | 24.44° C | 15% | 1017.5 hPa | 0 mm | - | 27 W/m² | - |
| 1778379650 | 24.44° C | 15% | 1017.6 hPa | 0 mm | - | 31 W/m² | - |
| 1778379346 | 25° C | 14% | 1017.7 hPa | 0 mm | - | 36 W/m² | - |
| 1778379044 | 25° C | 14% | 1017.5 hPa | 0 mm | - | 43 W/m² | - |
| 1778378738 | 25.56° C | 14% | 1017.7 hPa | 0 mm | - | 51 W/m² | - |
| 1778378434 | 25.56° C | 13% | 1017.8 hPa | 0 mm | - | 59 W/m² | - |
| 1778378130 | 25.56° C | 12% | 1017.8 hPa | 0 mm | - | 72 W/m² | - |
| 1778377826 | 26.11° C | 12% | 1017.9 hPa | 0 mm | - | 82 W/m² | - |
| 1778377523 | 26.11° C | 12% | 1017.7 hPa | 0 mm | - | 97 W/m² | - |
* Rain latest hour (hover to see other rain measurements)
** Current wind speed in m/s (hover to see current wind gust speed)